Find STARLINK-37817

NORAD ID: 799500925 Int'l Des: 2026-130C Constellation: starlink operational

現在のビュー

3D地球を読み込み中...

About STARLINK-37817

STARLINK-37817 (NORAD 799500925) is a starlink constellation satellite launched Jun 4, 2026

STARLINK-37817について

説明を読み込み中...

次回通過

Passes for default location (London). Set your location on the main map for personalized predictions.

高度履歴

Loading altitude history...

軌道要素

1 99999C 2026130C 26163.13937500 .00539420 00000-0 818420-4 0 1638
2 99999 97.2794 182.8591 0011045 272.8618 278.0901 16.04127031 17
Epoch: Jun 12, 2026 • Age: 5 hours

現在のステータス

高度 269.5 km
速度 7.75 km/s
衛星直下点 -26.62°S, 19.77°W
打ち上げ日 Jun 4, 2026
運用期間 7 days
タイプ internet

打ち上げグループ

Falcon 9 • Starlink Group 10-43 • 5 satellites

Most Searched